Location: Unspecified
(0.0000°N, 0.0000°E)
Time: 13:43:13
(UTC+00:00)

Vanguard 2 - Visible Passes

Search period start: 29 March 2015 00:00
Search period end: 08 April 2015 00:00
Orbit: 553 x 2945 km, 32.9° (Epoch: 29 March)

Date Brightness Start Highest point End Pass type
(mag) Time Alt. Az. Time Alt. Az. Time Alt. Az.
29 Mar 11.6 18:42:35 10° NNW 18:51:39 16° N 19:01:33 10° NE visible
29 Mar 11.0 20:54:43 10° NNW 21:08:16 30° NNE 21:08:16 30° NNE visible
29 Mar 11.6 23:06:46 10° NW 23:09:45 17° NW 23:09:45 17° NW visible
30 Mar 11.5 19:02:13 10° NNW 19:12:32 19° NNE 19:23:42 10° NE visible
30 Mar 10.9 21:13:34 10° NW 21:26:01 35° N 21:26:01 35° N visible
30 Mar 11.8 23:26:00 10° NW 23:27:31 14° NW 23:27:31 14° NW visible
31 Mar 11.3 19:21:22 10° NNW 19:33:15 22° NNE 19:42:20 15° NE visible
31 Mar 10.8 21:32:24 10° NW 21:43:49 39° N 21:43:49 39° N visible
01 Apr 11.0 19:40:14 10° NNW 19:53:43 28° NNE 20:00:08 23° NE visible
01 Apr 10.9 21:51:20 10° NW 22:01:38 40° NNW 22:01:38 40° NNW visible
02 Apr 10.8 19:58:59 10° NNW 20:13:57 35° NNE 20:18:00 32° NE visible
02 Apr 11.0 22:10:25 10° NW 22:19:30 37° NW 22:19:30 37° NW visible
03 Apr 11.5 18:08:01 10° NNW 18:17:58 20° NNE 18:29:44 10° ENE visible
03 Apr 10.5 20:17:45 10° NW 20:33:57 44° NNE 20:35:55 43° NE visible
03 Apr 11.1 22:29:44 10° NW 22:37:25 32° WNW 22:37:25 32° WNW visible
04 Apr 11.3 18:26:44 10° NNW 18:38:24 24° NNE 18:51:54 10° ENE visible
04 Apr 10.3 20:36:33 10° NW 20:53:44 55° NNE 20:53:52 55° NNE visible
04 Apr 11.4 22:49:20 10° WNW 22:55:22 26° WNW 22:55:22 26° WNW visible
05 Apr 11.1 18:45:21 10° NNW 18:58:35 31° NNE 19:10:22 16° ENE visible
05 Apr 10.2 20:55:29 10° NW 21:11:52 68° N 21:11:52 68° N visible
05 Apr 11.6 23:09:20 10° WNW 23:13:23 20° WNW 23:13:23 20° WNW visible
06 Apr 10.8 19:03:58 10° NNW 19:18:33 39° NNE 19:28:25 24° E visible
06 Apr 10.2 21:14:36 10° NW 21:29:55 71° NW 21:29:55 71° NW visible
06 Apr 11.8 23:29:48 10° W 23:31:26 13° W 23:31:26 13° W visible
07 Apr 10.6 19:22:38 10° NW 19:38:16 50° NNE 19:46:31 34° E visible
07 Apr 10.4 21:33:58 10° WNW 21:48:02 62° WNW 21:48:02 62° WNW visible
